TISAT 1

Last updated on Wed May 14 2025 00:03:40 GMT+0000 (Coordinated Universal Time)

1 36799U 10035E 25133.46995477 .00010397 00000+0 54488-3 0 9999 2 36799 98.0608 45.8499 0003573 153.9805 206.1606 15.15990874806863
UTC large
Height (km)
Speed (km/s)
/
Latitude / Longitude
Inclination (degrees)
Orbital Period (minutes)
Azimuth
Elevation
Range (km)
Doppler Factor

Next 0 passes for location: London (51.5072 / 0.1276)

Sorry there are no passes over London.